Hourly Data Report for January 05, 2022

RANKIN INLET A
NUNAVUT
Current Station Operator: NAVCAN

62°48'38.000" N
92°06'53.000" W
32.30 m
2303405
71083
YRT

Download Data

Hourly Data (January 2022)
Hourly Data Report for January 5, 2022
TIME
LST
Temp Definition
°C
Dew Point Definition
°C
Rel Hum Definition
%
Precip. Amount Definition
mm

Wind Dir Definition
10's deg

Wind Spd Definition
km/h
Visibility Definition
km
Stn Press Definition
kPa
Hmdx Definition


Wind Chill Definition


Weather Definition


00:00 -29.6 -33.5 70   33 46 0.6 101.76   -48 Blowing Snow
01:00 -29.9 -33.8 69   33 47 0.6 101.74   -48 Blowing Snow
02:00 -29.9 -33.8 69   33 41 0.8 101.78   -48 Blowing Snow
03:00 -30.0 -34.0 69   33 38 2.4 101.76   -47 Blowing Snow
04:00 -30.4 -34.4 69   32 37 2.4 101.75   -48 Blowing Snow
05:00 -30.7 -34.7 68   33 41 2.4 101.74   -49 Blowing Snow
06:00 -31.0 -35.1 68   31 36 4.8 101.69   -48 Blowing Snow
07:00 -31.3 -35.5 67   32 36 4.8 101.65   -49 Blowing Snow
08:00 -31.6 -35.8 67   32 39 4.8 101.61   -49 Blowing Snow
09:00 -32.1 -36.3 67   31 23 19.3 101.62   -47 Blowing Snow
10:00 -32.1 -36.5 66   30 27 19.3 101.60   -48 Blowing Snow
11:00 -32.2 -36.6 66   29 28 19.3 101.53   -48 Blowing Snow
12:00 -32.5 -36.9 66   29 28 19.3 101.47   -48 Blowing Snow
13:00 -32.8 -37.2 66   30 22 19.3 101.44   -47 Blowing Snow
14:00 -33.1 -37.5 66   30 22 19.3 101.41   -48 Blowing Snow
15:00 -33.7 -38.2 65   29 21 19.3 101.39   -48 Blowing Snow
16:00 -34.1 -38.6 65   29 24 19.3 101.36   -49 Blowing Snow
17:00 -34.4 -38.9 65   27 22 24.1 101.30   -49 LegendNANA
18:00 -34.4 -38.9 65   28 27 24.1 101.24   -51 Clear
19:00 -34.9 -39.4 65   27 23 24.1 101.19   -50 LegendNANA
20:00 -35.0 -39.5 64   28 18 24.1 101.11   -49 LegendNANA
21:00 -34.9 -39.4 65   27 21 24.1 101.01   -50 Clear
22:00 -34.9 -39.4 65   28 18 24.1 100.95   -49 LegendNANA
23:00 -35.2 -39.6 65   27 13 24.1 100.85   -47 LegendNANA

Notes on Data Quality.

Legend

  • E = Estimated
  • M = Missing
  • NA = Not Available*
  • [empty] = Indicates an unobserved value
Date modified: